Starlink 11145

operational
NORAD ID: 59945 Int'l Des: 2024-107 Owner: SPXS Country: US Constellation: starlink
LEOCIRCULAR

Über Starlink 11145

Beschreibung wird geladen...

Live-Position

3D-Globus wird geladen...

Nächste Überflüge

Höhenverlauf

Altitude vs Time

uPlot chart will show altitude changes over time

Zweizeiliger Elementsatz

1 59945U 24107A 26093.40561667 -.00000292 00000-0 24453-5 0 9998
2 59945 53.1586 129.7355 0000831 93.7563 266.3549 15.69711220106027
Epoch: 3. Apr. 2026 • Age: 23 hours

Aktueller Status

Höhe 360.7 km
Geschwindigkeit 7.70 km/s
Subsatellitenpunkt 27.23°N, 177.2°W
Startdatum 5. Juni 2024
Alter 1.8 years
Typ internet

Technische Details

Klassifizierung Payload
Masse 960.00 kg
Trockenmasse 910.00 kg
Gesamtmasse 960.00 kg
Länge 0.30 m
Durchmesser 4.10 m
Spannweite 29.00 m
Form Box + pan
Hersteller SPXS
Bus-Typ Starlink V2MD
Phasenstatus In Orbit
Besitzer/Staat SPXS/US

Große Konstellationen

Loading constellations...